TimeEDT,TemperatureF,Dew PointF,Humidity,Sea Level PressureIn,VisibilityMPH,Wind Direction,Wind SpeedMPH,Gust SpeedMPH,PrecipitationIn,Events,Conditions,WindDirDegrees,DateUTC
12:54 AM,50.0,45.0,83,30.16,10.0,SSW,4.6,-,N/A,,Clear,200,2013-10-08 04:54:00
1:54 AM,48.9,45.0,86,30.17,10.0,South,3.5,-,N/A,,Clear,180,2013-10-08 05:54:00
2:54 AM,48.0,45.0,89,30.17,10.0,Calm,Calm,-,N/A,,Clear,0,2013-10-08 06:54:00
3:54 AM,48.0,45.0,89,30.17,10.0,Calm,Calm,-,N/A,,Clear,0,2013-10-08 07:54:00
4:54 AM,48.9,45.0,86,30.18,10.0,SSW,3.5,-,N/A,,Clear,200,2013-10-08 08:54:00
5:54 AM,46.9,45.0,93,30.19,10.0,Calm,Calm,-,N/A,,Clear,0,2013-10-08 09:54:00
6:54 AM,46.9,45.0,93,30.21,10.0,SSE,3.5,-,N/A,,Clear,150,2013-10-08 10:54:00
7:54 AM,46.9,44.1,90,30.22,10.0,East,4.6,-,N/A,Fog,Shallow Fog,100,2013-10-08 11:54:00
8:54 AM,48.9,46.0,90,30.25,10.0,ESE,3.5,-,N/A,,Clear,110,2013-10-08 12:54:00
9:54 AM,54.0,48.0,80,30.26,10.0,Calm,Calm,-,N/A,,Clear,0,2013-10-08 13:54:00
10:54 AM,59.0,48.0,67,30.26,10.0,SSE,5.8,-,N/A,,Clear,150,2013-10-08 14:54:00
11:54 AM,63.0,48.0,58,30.25,10.0,ESE,8.1,-,N/A,,Clear,120,2013-10-08 15:54:00
12:54 PM,66.0,46.9,50,30.24,10.0,East,6.9,-,N/A,,Clear,90,2013-10-08 16:54:00
1:54 PM,68.0,46.0,45,30.22,10.0,SE,9.2,-,N/A,,Clear,140,2013-10-08 17:54:00
2:54 PM,69.1,46.0,44,30.20,10.0,Variable,3.5,-,N/A,,Clear,0,2013-10-08 18:54:00
3:54 PM,69.1,46.0,44,30.19,10.0,SSE,5.8,-,N/A,,Clear,150,2013-10-08 19:54:00
4:54 PM,70.0,46.0,42,30.18,10.0,SE,12.7,-,N/A,,Clear,130,2013-10-08 20:54:00
5:54 PM,68.0,45.0,43,30.18,10.0,SE,9.2,-,N/A,,Clear,130,2013-10-08 21:54:00
6:54 PM,64.9,43.0,45,30.19,10.0,ESE,6.9,-,N/A,,Clear,120,2013-10-08 22:54:00
7:54 PM,63.0,43.0,48,30.19,10.0,East,4.6,-,N/A,,Clear,100,2013-10-08 23:54:00
8:54 PM,60.1,43.0,53,30.19,10.0,East,6.9,-,N/A,,Clear,100,2013-10-09 00:54:00
9:54 PM,57.9,45.0,62,30.20,10.0,ESE,8.1,-,N/A,,Clear,120,2013-10-09 01:54:00
10:54 PM,55.9,45.0,67,30.20,10.0,ESE,9.2,-,N/A,,Clear,120,2013-10-09 02:54:00
11:54 PM,54.0,44.1,69,30.20,10.0,ESE,8.1,-,N/A,,Clear,120,2013-10-09 03:54:00